Hourly Weather Murkow

Today, 20 September, Monday

Time Temperature Precipitation Wind Pressure Humidity
00:00 +10°C° 0 mm 2 mps 743 mmHg 75%
01:00 +10°C° 0 mm 2 mps 743 mmHg 77%
02:00 +10°C° 0 mm 2 mps 743 mmHg 79%
03:00 +10°C° 0 mm 2 mps 744 mmHg 82%
04:00 +10°C° 0 mm 2 mps 744 mmHg 84%
05:00 +10°C° 0 mm 2 mps 744 mmHg 84%
06:00 +10°C° 0 mm 2 mps 744 mmHg 84%
07:00 +10°C° 0 mm 2 mps 744 mmHg 83%
08:00 +10°C° 0 mm 3 mps 745 mmHg 75%
09:00 +11°C° 0 mm 3 mps 745 mmHg 67%
10:00 +12°C° 0 mm 4 mps 745 mmHg 58%
11:00 +12°C° 0 mm 4 mps 745 mmHg 59%
12:00 +12°C° 0 mm 4 mps 745 mmHg 59%
13:00 +12°C° 0 mm 4 mps 745 mmHg 59%
14:00 +12°C° 0 mm 4 mps 746 mmHg 61%
15:00 +11°C° 0 mm 4 mps 746 mmHg 63%
16:00 +11°C° 0 mm 3 mps 746 mmHg 64%
17:00 +10°C° 0 mm 3 mps 746 mmHg 66%
18:00 +10°C° 0 mm 3 mps 747 mmHg 67%
19:00 +9°C° 0 mm 2 mps 747 mmHg 69%
20:00 +8°C° 0 mm 2 mps 748 mmHg 70%
21:00 +9°C° 0 mm 1 mps 748 mmHg 72%
22:00 +8°C° 0 mm 1 mps 748 mmHg 73%
23:00 +8°C° 0 mm 1 mps 748 mmHg 74%

Tomorrow, 21 September, Tuesday

Time Temperature Precipitation Wind Pressure Humidity
00:00 +7°C° 0 mm 1 mps 749 mmHg 76%
01:00 +7°C° 0 mm 1 mps 749 mmHg 77%
02:00 +7°C° 0 mm 1 mps 749 mmHg 79%
03:00 +6°C° 0 mm 1 mps 749 mmHg 80%
04:00 +6°C° 0 mm 1 mps 749 mmHg 82%
05:00 +7°C° 0 mm 1 mps 749 mmHg 80%
06:00 +6°C° 0 mm 2 mps 750 mmHg 79%
07:00 +7°C° 0 mm 2 mps 750 mmHg 77%
08:00 +9°C° 0 mm 2 mps 750 mmHg 70%
09:00 +11°C° 0 mm 3 mps 750 mmHg 63%
10:00 +12°C° 0 mm 3 mps 750 mmHg 56%
11:00 +13°C° 0 mm 4 mps 750 mmHg 53%
12:00 +14°C° 0 mm 4 mps 750 mmHg 49%
13:00 +14°C° 0 mm 4 mps 750 mmHg 46%
14:00 +14°C° 0 mm 4 mps 750 mmHg 46%
15:00 +14°C° 0 mm 4 mps 750 mmHg 47%
16:00 +13°C° 0 mm 4 mps 750 mmHg 48%
17:00 +13°C° 0 mm 3 mps 750 mmHg 51%
18:00 +12°C° 0 mm 3 mps 750 mmHg 54%
19:00 +12°C° 0 mm 2 mps 750 mmHg 57%
20:00 +12°C° 0 mm 2 mps 750 mmHg 58%
21:00 +12°C° 0 mm 2 mps 750 mmHg 60%
22:00 +12°C° 0 mm 2 mps 750 mmHg 62%
23:00 +10°C° 0 mm 2 mps 750 mmHg 63%

Day after tomorrow, 22 September, Wednesday

Time Temperature Precipitation Wind Pressure Humidity
00:00 +10°C° 0 mm 2 mps 750 mmHg 65%
01:00 +10°C° 0 mm 2 mps 749 mmHg 67%
02:00 +10°C° 0.2 mm 3 mps 749 mmHg 72%
03:00 +9°C° 0.2 mm 3 mps 749 mmHg 77%
04:00 +8°C° 0.2 mm 4 mps 748 mmHg 83%
05:00 +9°C° 0.5 mm 3 mps 748 mmHg 85%
06:00 +9°C° 0.5 mm 3 mps 748 mmHg 88%
07:00 +8°C° 0.5 mm 3 mps 749 mmHg 91%
08:00 +8°C° 0.1 mm 3 mps 749 mmHg 90%
09:00 +9°C° 0.1 mm 3 mps 749 mmHg 90%
10:00 +9°C° 0.1 mm 3 mps 749 mmHg 90%
11:00 +9°C° 0.2 mm 3 mps 749 mmHg 90%
12:00 +9°C° 0.2 mm 3 mps 749 mmHg 90%
13:00 +9°C° 0.2 mm 3 mps 748 mmHg 91%
14:00 +9°C° 0.2 mm 3 mps 748 mmHg 91%
15:00 +9°C° 0.2 mm 2 mps 748 mmHg 91%
16:00 +9°C° 0.2 mm 2 mps 748 mmHg 91%
17:00 +9°C° 0 mm 2 mps 748 mmHg 91%
18:00 +10°C° 0 mm 1 mps 748 mmHg 92%
19:00 +10°C° 0 mm 1 mps 748 mmHg 92%
20:00 +10°C° 0.1 mm 1 mps 747 mmHg 93%
21:00 +10°C° 0.1 mm 1 mps 747 mmHg 93%
22:00 +9°C° 0.1 mm 2 mps 747 mmHg 93%
23:00 +9°C° 0 mm 2 mps 747 mmHg 94%

23 September, Thursday

Time Temperature Precipitation Wind Pressure Humidity
00:00 +9°C° 0 mm 2 mps 746 mmHg 94%
01:00 +9°C° 0 mm 2 mps 746 mmHg 95%
02:00 +9°C° 0 mm 2 mps 746 mmHg 95%
03:00 +8°C° 0 mm 2 mps 745 mmHg 95%
04:00 +8°C° 0 mm 2 mps 745 mmHg 96%
05:00 +8°C° 0 mm 2 mps 745 mmHg 94%
06:00 +9°C° 0 mm 2 mps 745 mmHg 91%
07:00 +9°C° 0 mm 2 mps 745 mmHg 89%
08:00 +11°C° 0 mm 3 mps 744 mmHg 83%
09:00 +13°C° 0 mm 3 mps 744 mmHg 76%
10:00 +14°C° 0 mm 4 mps 743 mmHg 69%
11:00 +15°C° 0 mm 4 mps 743 mmHg 63%
12:00 +18°C° 0 mm 4 mps 742 mmHg 58%
13:00 +19°C° 0 mm 5 mps 742 mmHg 52%
14:00 +17°C° 0 mm 5 mps 741 mmHg 54%
15:00 +17°C° 0 mm 5 mps 740 mmHg 56%
16:00 +17°C° 0 mm 5 mps 740 mmHg 58%
17:00 +16°C° 0 mm 5 mps 739 mmHg 59%
18:00 +15°C° 0 mm 4 mps 739 mmHg 61%
19:00 +15°C° 0 mm 4 mps 739 mmHg 62%
20:00 +15°C° 0 mm 5 mps 738 mmHg 61%
21:00 +15°C° 0 mm 5 mps 738 mmHg 60%
22:00 +15°C° 0 mm 6 mps 738 mmHg 58%
23:00 +15°C° 0 mm 6 mps 738 mmHg 59%

24 September, Friday

Time Temperature Precipitation Wind Pressure Humidity
00:00 +15°C° 0 mm 6 mps 737 mmHg 59%
01:00 +15°C° 0 mm 6 mps 737 mmHg 59%
02:00 +15°C° 0 mm 6 mps 737 mmHg 62%
03:00 +14°C° 0 mm 7 mps 737 mmHg 65%
04:00 +14°C° 0 mm 7 mps 737 mmHg 68%
05:00 +14°C° 0 mm 7 mps 737 mmHg 68%
06:00 +14°C° 0 mm 7 mps 737 mmHg 68%
07:00 +13°C° 0 mm 8 mps 737 mmHg 67%
08:00 +14°C° 0.1 mm 7 mps 737 mmHg 69%
09:00 +14°C° 0.1 mm 7 mps 737 mmHg 70%
10:00 +14°C° 0.1 mm 7 mps 737 mmHg 71%
11:00 +15°C° 0 mm 7 mps 737 mmHg 71%
12:00 +15°C° 0 mm 7 mps 738 mmHg 72%
13:00 +15°C° 0 mm 7 mps 738 mmHg 72%
14:00 +15°C° 0 mm 6 mps 738 mmHg 71%
15:00 +15°C° 0 mm 6 mps 738 mmHg 71%
16:00 +16°C° 0 mm 5 mps 738 mmHg 70%
17:00 +16°C° 0 mm 5 mps 738 mmHg 71%
18:00 +16°C° 0 mm 5 mps 738 mmHg 71%
19:00 +17°C° 0 mm 4 mps 738 mmHg 72%
20:00 +16°C° 0 mm 5 mps 738 mmHg 71%
21:00 +16°C° 0 mm 5 mps 738 mmHg 70%
22:00 +16°C° 0 mm 5 mps 738 mmHg 69%
23:00 +16°C° 0 mm 6 mps 738 mmHg 70%

25 September, Saturday

Time Temperature Precipitation Wind Pressure Humidity
00:00 +16°C° 0 mm 6 mps 738 mmHg 70%
01:00 +16°C° 0 mm 6 mps 738 mmHg 71%
02:00 +16°C° 0 mm 6 mps 738 mmHg 72%
03:00 +16°C° 0 mm 6 mps 738 mmHg 72%
04:00 +16°C° 0 mm 6 mps 739 mmHg 72%
05:00 +16°C° 0 mm 5 mps 739 mmHg 73%
06:00 +16°C° 0 mm 5 mps 739 mmHg 73%
07:00 +16°C° 0 mm 5 mps 740 mmHg 73%
08:00 +17°C° 0 mm 5 mps 740 mmHg 71%
09:00 +17°C° 0 mm 5 mps 741 mmHg 68%
10:00 +19°C° 0 mm 5 mps 741 mmHg 66%
11:00 +20°C° 0 mm 5 mps 741 mmHg 63%
12:00 +20°C° 0 mm 5 mps 741 mmHg 59%
13:00 +21°C° 0 mm 5 mps 741 mmHg 56%
14:00 +21°C° 0 mm 4 mps 742 mmHg 57%
15:00 +22°C° 0 mm 4 mps 742 mmHg 57%
16:00 +22°C° 0 mm 3 mps 742 mmHg 57%
17:00 +20°C° 0 mm 3 mps 742 mmHg 62%
18:00 +19°C° 0 mm 2 mps 742 mmHg 67%
19:00 +18°C° 0 mm 2 mps 742 mmHg 72%
20:00 +17°C° 0 mm 2 mps 742 mmHg 73%
21:00 +17°C° 0 mm 2 mps 743 mmHg 75%
22:00 +17°C° 0 mm 2 mps 743 mmHg 77%
23:00 +16°C° 0 mm 2 mps 743 mmHg 78%
Show more

We Need Your Consent

Meteoprog and our Service Providers may store and access personal data such as cookies, device identifiers or other similar technologies on your device and process such data to personalise content and ads, as well as provide social media features and to analyse the traffic.

  • Store and/or access information on your device

    Cookies, device identifiers or other information can be stored or accessed on your device for the purposes indicated above.

  • Personalised ads and content, ad and content measurement, audience insights, and products development

    Ads and content can be personalised based on a profile. More data can be added to better personalise ads and content. Ad and content performance can be measured. Insights about the audience who saw the ads and content can be derived. Such data can be used to develop or improve user’s experience, systems and software.

By clicking ‘I Agree’ you will allow the use of indicated cookies, device identifiers, web beacons or other similar technologies. Your settings can be changed in the browser on your device.

For certain purposes, legitimate interests may be relied on, rather than consent. You can read more about this in our Privacy and Cookie Policy.